Home > Weather > Frankfort > Past weeks

Flag for USA Past Weather in Frankfort, Kentucky, USA — Yesterday and Last 2 Weeks

Now
75 °F

Sunny.


Feels Like: 74 °F
Forecast: 72 / 89 °F
Wind: No wind

Location: Capital City Airport

Current Time: Jul 26, 2016 at 8:28:51 AM

Latest Report: Jul 26, 2016 at 7:53 AM


Visibility: 10 mi

Pressure: 30.02 "Hg

Humidity: 88%

Dew Point: 71 °F

Location of FrankfortLocation

Past Weather in Frankfort — Graph

°F

Frankfort Temperature Yesterday

Maximum temperature yesterday: 91 °F (at 12:53 PM)
Minimum temperature yesterday: 74 °F (at 11:53 PM)
Average temperature yesterday: 81 °F

High & Low Weather Summary for the Past Weeks

 TemperatureHumidityPressure
High93 °F (Jul 24, 2:53 PM)94% (Jul 26, 12:57 AM)30.27 "Hg (Jul 26, 12:57 AM)
Low65 °F (Jul 11, 6:53 AM)42% (Jul 15, 3:53 PM)29.89 "Hg (Jul 14, 4:53 PM)
Average79 °F74%30.05 "Hg
* Reported Jul 11 6:53 AM — Jul 26 6:53 AM, Frankfort, Weather by CustomWeather, © 2016

Note: Actual official high and low records may vary slightly from our data, if they occured in-between our weather recording intervals... More about our weather records

Advertising

Frankfort Weather History for the Previous 24 Hours

Scroll right to see more
 ConditionsComfort  
Time TempWeatherWind HumidityBarometerVisibility
6:53 AM
Tue, Jul 26
73 °FClear.No wind90%30.03 "Hg10 mi
5:53 AM73 °FFog.No wind94%30.00 "Hg6 mi
4:53 AM74 °FClear.No wind91%29.98 "Hg7 mi
3:53 AM74 °FClear.No wind91%29.98 "Hg9 mi
2:53 AM73 °FClear.5 mph94%29.99 "Hg7 mi
2:01 AM74 °FPassing clouds.5 mph94%30.02 "Hg9 mi
1:04 AM75 °FFog.3 mph94%30.02 "Hg1 mi
12:57 AM75 °FFog.3 mph94%30.02 "Hg2 mi
11:53 PM
Mon, Jul 25
74 °FClear.No wind91%29.97 "Hg10 mi
10:53 PM77 °FClear.5 mph85%29.99 "Hg10 mi
9:53 PM77 °FSunny.3 mph82%29.98 "Hg10 mi
8:53 PM77 °FSunny.No wind79%29.98 "Hg10 mi
7:53 PM78 °FSunny.3 mph79%29.97 "Hg10 mi
6:53 PM78 °FSunny.7 mph76%29.97 "Hg10 mi
5:53 PM82 °FMostly cloudy.12 mph79%29.96 "Hg10 mi
4:53 PM86 °FSunny.6 mph70%29.96 "Hg10 mi
3:53 PM84 °FSunny.6 mph72%29.95 "Hg10 mi
2:53 PM76 °FThundershowers. Cloudy.8 mph80%30.00 "Hg10 mi
1:53 PM87 °FBroken clouds.9 mph63%29.97 "Hg10 mi
12:53 PM91 °FScattered clouds.5 mph60%29.98 "Hg10 mi
11:53 AM90 °FScattered clouds.8 mph61%30.00 "Hg10 mi
10:53 AM87 °FSunny.7 mph67%29.99 "Hg10 mi
9:53 AM85 °FSunny.5 mph72%29.98 "Hg10 mi
8:53 AM82 °FSunny.9 mph79%29.99 "Hg10 mi
Weather by CustomWeather, © 2016

See weather overviewHow to use our weather pages